GFSCGP_500_spd_162.txt.gz
Wind_Speed
30 25 23 24 27 27 27 25 21 22 30 31 37 71 78 76 73 71 66 69 69 62 61 59 64 66 60 57 54 52 53 48 44 45 47 46 40 39 38 39 40 41 42 42
27 23 25 31 28 28 26 28 25 24 28 32 29 41 75 78 75 73 67 67 68 64 60 57 57 64 64 60 59 54 52 52 51 52 53 48 41 40 42 43 45 44 43 43
25 18 28 28 27 26 25 24 23 27 31 32 33 36 58 81 79 74 68 64 69 66 58 56 55 61 63 64 59 51 51 54 53 57 55 52 46 46 46 48 48 46 43 43
24 24 28 25 21 27 28 26 30 35 37 35 32 30 35 78 82 75 69 64 66 65 57 55 54 58 62 60 57 57 53 54 56 46 51 48 47 49 50 48 44 40 39 40
26 27 27 23 22 26 29 30 33 33 32 36 41 42 18 57 85 77 71 63 67 65 57 56 53 62 63 62 57 54 51 49 48 45 44 42 34 35 42 41 38 37 36 36
30 31 25 25 25 26 30 32 33 30 30 35 30 40 29 33 83 79 70 64 66 64 57 57 56 62 66 61 51 51 51 47 45 45 39 34 34 36 36 36 35 34 36 36
34 27 28 29 29 29 33 31 28 30 32 29 23 31 33 22 75 79 70 65 66 65 59 60 59 63 62 58 52 49 42 43 41 36 36 35 35 34 32 31 27 26 28 29
32 25 29 29 28 32 29 27 27 33 33 27 24 37 29 20 60 78 73 68 69 68 65 68 68 69 61 51 47 48 42 39 34 36 37 35 34 28 26 19 18 23 17 23
29 34 34 33 36 27 23 24 22 35 37 34 29 35 38 38 50 76 81 77 73 72 67 65 66 65 57 50 50 45 37 34 36 38 36 31 26 22 16 16 16 19 18 14
32 37 32 26 19 17 22 21 25 29 33 32 24 27 32 37 44 80 82 77 77 72 68 66 63 60 53 50 46 40 34 38 39 37 32 26 24 18 17 16 16 16 16 14
36 35 34 22 15 21 21 17 21 27 26 28 19 22 19 35 51 83 80 74 76 71 67 67 62 55 51 49 46 42 38 39 38 32 28 27 23 21 18 18 17 16 17 15
31 35 27 14 17 16 15 17 16 18 17 23 29 11 6 22 64 83 79 71 69 69 68 65 58 56 54 51 45 39 35 33 28 27 27 25 23 22 21 20 19 17 19 20
28 30 23 18 21 20 12 14 13 13 22 21 27 12 27 42 56 82 76 69 70 71 69 62 59 57 55 47 43 36 32 27 23 26 26 24 24 24 22 21 21 22 21 22
25 21 16 17 16 22 19 15 10 13 20 23 18 2 40 55 61 73 73 75 72 69 62 62 60 55 49 43 38 32 28 27 25 26 24 24 23 24 23 23 23 23 22 23
20 17 12 12 19 16 9 12 8 16 23 14 11 21 47 54 79 73 76 76 69 63 60 58 53 48 43 40 34 28 27 27 25 26 26 25 24 25 23 23 24 24 25 25
21 11 14 17 17 19 14 12 13 9 15 18 19 46 42 50 75 65 75 69 67 62 58 54 48 43 39 34 27 25 25 26 26 25 25 25 26 26 24 24 25 28 28 25
18 10 10 13 13 12 13 9 19 18 17 16 40 40 45 53 72 67 68 68 66 60 56 51 45 39 36 28 26 24 24 24 22 21 24 25 24 24 24 26 30 29 28 27
14 9 12 12 12 14 24 22 23 19 7 47 54 41 51 55 58 62 65 65 60 54 51 46 42 38 35 31 27 26 27 24 21 24 25 26 25 24 26 28 30 27 26 26
11 8 11 8 12 17 22 24 32 37 41 51 52 44 42 47 51 60 62 61 56 52 47 43 41 39 34 30 27 27 24 23 24 26 27 25 23 24 27 29 27 25 25 24
12 9 10 10 9 14 21 29 14 24 45 53 41 43 40 47 52 58 58 57 53 49 44 45 43 38 34 31 28 26 26 27 28 28 27 26 25 26 27 24 23 21 23 25
9 7 9 7 11 16 16 23 15 31 34 51 43 42 43 46 47 50 51 49 46 45 47 45 39 34 32 31 29 28 29 29 29 29 27 26 28 26 22 23 23 24 26 29
6 4 3 5 6 11 10 31 22 41 47 45 44 42 43 45 46 47 47 46 46 45 44 39 35 34 35 32 30 30 29 29 30 29 29 27 23 20 22 23 24 25 26 27
4 2 5 4 6 9 15 27 17 47 36 51 47 47 44 45 44 45 46 44 43 41 39 37 39 35 29 30 31 31 30 30 28 26 22 20 20 20 21 21 21 23 25 28
2 1 9 7 12 15 17 16 24 43 31 49 49 49 46 45 44 41 42 43 42 40 40 40 36 32 32 32 31 31 31 27 21 21 19 17 18 20 20 20 22 25 28 28
5 6 8 11 14 15 21 21 20 27 48 49 47 47 44 40 40 41 42 41 39 38 38 37 35 36 35 32 27 23 23 23 22 19 18 18 18 18 18 20 23 24 25 26
3 9 12 14 14 12 14 22 21 28 43 44 43 39 40 38 35 36 36 35 35 36 36 35 37 39 37 35 31 25 28 24 20 17 17 17 16 17 19 20 21 23 24 25

GFSCGP_500_spd_165.txt.gz
Wind_Speed
27 28 22 23 28 32 32 31 29 28 26 29 29 35 28 35 69 76 71 75 70 69 69 66 66 66 67 63 58 57 52 48 44 40 39 35 34 34 36 36 33 31 33 36
30 29 27 28 28 31 32 32 29 27 30 31 28 33 32 36 48 68 75 78 72 70 69 69 65 65 68 61 61 59 55 51 45 44 42 39 37 38 39 39 38 38 38 39
28 24 27 31 31 28 30 28 27 29 28 35 38 35 34 35 51 79 80 80 75 71 69 69 64 63 65 63 68 63 60 52 50 48 46 44 43 44 45 46 46 44 42 45
24 25 29 31 29 28 31 28 28 31 32 33 26 40 34 27 36 65 77 78 77 71 69 68 65 64 61 64 59 65 61 57 53 50 49 48 48 49 49 50 47 46 48 45
22 33 33 34 29 27 31 29 32 32 35 37 37 40 31 23 28 50 73 77 73 68 66 67 65 63 58 71 66 68 62 59 56 54 51 48 52 55 53 54 51 46 40 41
36 33 37 34 30 28 29 31 32 34 35 40 31 32 33 29 28 35 63 74 72 68 63 63 65 61 61 67 72 70 65 62 55 57 42 45 47 48 45 37 34 34 32 29
37 31 28 27 29 28 27 27 31 36 38 30 17 28 25 23 32 30 38 71 72 66 62 61 64 62 62 64 70 66 64 59 52 43 46 45 45 44 38 31 31 26 22 22
31 24 30 30 27 29 28 29 37 40 31 27 21 29 22 17 26 32 38 68 71 66 61 63 62 59 62 67 67 69 62 56 51 50 47 47 46 38 30 29 23 17 16 13
33 32 32 33 33 30 33 36 30 32 30 32 24 28 28 28 28 32 38 66 71 68 67 64 59 68 64 69 67 65 59 55 51 44 46 46 39 31 28 24 16 14 13 12
35 36 31 28 31 25 22 22 25 31 37 35 35 34 33 19 27 36 31 69 75 72 67 66 71 72 71 73 67 66 61 52 45 44 41 37 34 27 25 19 16 15 13 13
32 32 25 27 15 12 16 21 24 26 31 28 26 24 35 37 36 30 33 65 76 74 66 67 74 69 42 65 69 64 59 50 49 40 38 37 29 25 21 18 18 16 15 15
29 33 26 21 15 21 21 18 20 23 18 28 26 30 31 37 40 38 37 66 77 71 66 72 71 66 39 78 68 61 53 47 39 37 37 34 28 23 22 20 19 17 15 15
25 27 29 17 14 16 23 15 12 15 19 20 27 31 31 33 40 45 42 66 78 70 71 76 73 47 56 52 59 51 45 40 36 37 34 30 25 24 22 21 18 17 16 17
23 22 16 14 11 14 13 15 18 20 19 17 25 20 29 32 48 43 63 70 75 68 75 77 76 63 34 47 49 48 43 40 37 33 30 27 24 24 23 19 19 19 18 19
23 16 11 10 14 17 17 16 17 13 23 24 10 25 21 37 46 56 77 64 52 73 75 74 62 68 51 53 49 45 38 37 34 27 24 24 25 25 22 20 20 19 20 20
21 12 10 15 14 15 13 13 18 20 22 22 24 6 38 36 45 65 73 56 59 73 74 65 51 51 53 49 42 36 35 33 28 25 22 22 22 22 21 20 20 20 20 22
18 9 8 14 16 16 9 27 32 24 25 27 26 30 49 30 59 69 69 57 65 68 67 63 55 52 47 43 36 32 34 29 24 22 20 21 21 22 21 20 20 21 22 25
12 11 14 12 18 21 27 31 32 21 11 16 19 55 42 59 69 75 48 63 62 60 64 58 54 50 44 37 34 35 31 25 23 22 20 20 20 18 18 18 19 22 25 28
13 11 13 13 17 21 29 31 17 10 21 35 37 41 32 66 79 51 54 58 57 56 56 54 51 47 41 39 38 31 27 24 22 20 19 17 15 15 16 19 22 24 26 27
9 9 11 7 15 25 28 26 15 27 39 24 37 39 40 70 64 57 61 60 58 57 53 51 47 46 43 39 33 28 24 22 19 18 16 14 15 17 19 22 23 25 24 23
11 9 9 9 14 22 31 17 15 34 18 34 42 41 45 63 55 57 61 60 58 56 51 48 47 43 37 32 27 23 22 21 19 17 15 17 19 19 21 23 26 23 23 25
14 11 9 11 16 25 24 14 37 25 35 42 29 51 44 52 55 60 61 59 55 51 49 46 42 38 32 27 26 25 22 20 18 19 20 21 20 22 25 25 22 22 23 25
13 12 9 10 19 26 22 20 36 29 34 37 43 51 53 53 54 56 57 55 54 51 47 44 39 33 29 28 26 24 22 19 22 23 23 22 24 28 21 20 21 21 24 26
12 10 4 10 23 24 24 15 37 33 37 33 43 53 54 53 52 50 53 51 48 47 44 38 34 32 29 27 25 23 23 24 24 24 24 27 26 20 19 20 24 24 23 24
9 6 6 14 17 17 23 13 40 41 44 42 49 55 55 55 50 47 41 43 45 43 38 35 32 30 29 27 26 27 28 28 27 30 30 23 20 22 23 24 22 22 22 22
3 6 8 14 16 17 21 14 32 46 46 45 48 52 52 53 51 43 40 38 37 37 36 35 34 33 31 31 28 27 28 33 35 25 20 23 25 24 24 21 21 20 19 20

GFSCGP_500_spd_168.txt.gz
Wind_Speed
27 30 25 21 25 27 27 28 29 29 33 28 31 38 38 27 30 33 71 85 80 79 72 68 70 68 69 69 70 83 25 38 46 43 45 44 38 33 31 28 24 28 29 29
27 27 25 25 30 29 29 31 33 29 29 32 40 41 36 34 37 40 35 48 74 78 70 69 72 71 70 72 71 69 54 48 43 44 42 40 35 32 29 27 29 30 32 35
27 22 27 28 31 32 34 33 34 36 31 33 36 43 39 35 35 31 43 46 51 67 71 70 72 73 70 72 65 63 60 53 46 48 46 39 34 33 30 30 31 34 36 39
25 23 28 31 33 32 38 31 37 37 33 37 34 43 39 37 32 34 30 47 55 50 67 69 73 73 72 69 63 65 62 60 54 49 47 46 40 35 35 37 36 36 39 42
20 28 34 38 33 35 36 30 35 34 36 36 36 41 32 37 39 31 39 34 63 64 69 76 73 71 74 67 59 61 64 61 56 56 53 50 41 42 42 40 37 39 40 45
30 31 32 28 25 24 25 29 32 33 36 41 31 36 36 31 31 28 31 36 46 70 79 78 73 72 73 64 57 61 64 62 66 63 56 48 45 44 42 40 41 38 37 30
29 23 25 28 32 25 26 36 30 41 37 37 32 35 37 16 16 21 32 36 26 55 74 72 72 73 71 65 60 59 64 69 62 52 56 47 47 46 42 39 33 32 28 27
32 29 21 31 33 32 32 35 41 40 36 34 30 39 30 15 15 21 32 26 28 46 72 66 69 69 70 63 55 59 64 73 62 61 54 53 51 45 37 34 32 28 24 20
30 31 31 32 34 35 32 32 42 40 39 44 38 37 30 20 25 17 33 43 28 32 64 65 65 65 68 62 59 59 64 67 59 46 49 50 48 40 36 34 25 23 19 16
30 35 29 28 28 26 25 20 23 27 33 35 35 32 23 22 24 30 40 34 33 37 59 64 62 63 70 60 61 61 65 66 58 53 49 50 39 37 33 33 22 21 20 16
36 35 23 24 25 21 18 16 23 27 27 32 34 24 29 34 38 39 33 28 33 46 56 62 62 66 67 61 62 62 61 66 68 64 59 48 46 38 32 22 22 21 19 16
29 27 23 22 19 14 16 18 20 31 24 25 31 27 29 32 35 43 37 38 26 48 67 63 64 66 66 65 63 66 62 68 70 63 53 50 42 38 24 22 22 21 19 15
25 24 29 9 11 15 16 21 20 26 27 29 28 24 27 32 29 42 35 30 32 46 65 62 64 69 65 65 64 72 87 77 68 56 52 46 47 21 24 22 23 21 17 16
22 22 23 14 12 18 15 12 15 18 23 23 24 22 18 24 29 33 40 29 49 56 52 64 70 71 73 74 60 47 67 56 57 52 51 47 24 25 23 25 24 20 18 17
20 22 17 13 14 16 17 17 12 18 24 29 22 19 18 24 32 35 37 34 57 47 47 64 73 75 77 67 48 61 54 58 51 54 50 31 22 22 24 25 22 20 18 16
22 20 13 10 13 20 34 28 29 34 35 34 34 27 32 28 31 31 36 51 58 47 52 71 71 75 68 43 61 47 49 44 49 36 26 19 20 23 25 25 21 18 16 15
21 20 16 10 17 18 25 32 26 32 43 41 42 32 36 32 31 41 42 61 66 51 57 66 66 66 62 67 47 49 48 47 38 31 24 22 23 24 23 22 19 17 16 16
20 22 21 19 17 19 31 29 40 35 22 22 25 22 24 26 34 48 55 68 61 56 63 65 59 56 48 50 63 48 46 32 28 24 24 23 23 23 22 21 16 15 16 17
18 19 19 21 20 27 33 34 27 11 13 3 4 6 21 34 40 52 66 65 57 50 65 61 57 58 37 50 49 39 29 25 25 24 21 20 23 22 19 16 16 16 17 19
18 20 21 22 23 31 30 33 15 8 6 6 7 13 34 45 50 64 63 60 55 60 49 52 49 41 49 45 37 31 26 24 22 21 20 20 19 18 16 15 14 16 18 20
19 19 18 16 24 26 30 6 2 6 7 7 11 43 16 44 58 45 54 51 54 56 48 48 46 41 33 35 30 27 25 24 22 20 19 20 18 15 14 15 16 18 19 21
20 16 13 10 20 26 24 3 7 6 18 11 16 26 34 53 52 46 52 50 52 49 47 49 44 39 34 29 26 25 23 20 21 21 20 16 15 15 16 17 18 20 20 17
19 14 7 13 19 28 21 5 5 27 25 25 37 46 37 33 44 47 45 44 48 49 51 51 46 31 30 28 26 21 18 19 19 16 16 16 16 17 17 16 18 17 18 20
18 9 7 11 16 26 20 7 12 16 24 28 43 47 43 45 48 50 42 40 38 37 30 27 30 28 25 24 22 21 20 18 16 17 17 18 18 16 16 17 18 19 22 24
10 7 5 9 19 24 19 13 10 22 28 43 49 47 47 44 40 35 42 43 39 38 34 33 30 28 26 23 21 20 19 18 18 18 18 19 18 18 20 20 20 22 24 22
4 6 6 11 16 20 12 22 22 21 36 48 50 47 48 45 41 38 41 42 41 41 37 32 28 25 23 22 21 20 19 19 18 16 17 20 20 23 23 23 22 24 24 23

GFSCGP_500_spd_171.txt.gz
Wind_Speed
27 28 26 28 28 27 29 26 26 26 27 31 35 33 38 40 37 36 32 78 81 81 77 77 76 70 65 65 66 65 60 57 52 55 49 42 30 27 33 25 25 24 22 21
26 26 23 27 29 30 29 30 28 29 27 31 35 38 39 42 43 33 34 29 66 83 83 80 76 72 68 65 66 61 59 60 54 67 47 50 40 34 28 27 28 25 23 19
26 20 21 24 25 27 29 34 35 35 33 33 38 37 38 41 40 40 33 29 36 66 85 82 77 69 65 68 69 64 55 56 54 48 48 50 41 34 27 27 27 25 22 22
23 22 22 24 25 29 37 34 35 38 40 36 32 42 35 37 35 36 30 29 31 38 79 88 81 69 67 73 73 69 58 56 55 60 64 49 39 31 25 31 26 23 24 26
25 24 24 26 28 30 34 32 36 38 39 37 39 42 28 31 34 32 33 34 28 32 49 74 90 79 74 73 72 70 57 55 60 51 52 36 41 43 37 31 25 25 26 28
28 24 22 26 30 30 28 30 31 33 41 42 34 34 34 28 24 28 30 33 35 29 52 54 80 85 72 77 75 72 60 54 56 39 43 33 35 35 34 34 33 32 30 31
22 19 20 25 29 30 31 34 38 41 46 46 31 32 37 23 19 28 28 32 36 30 58 58 65 84 76 81 75 71 61 52 50 48 50 48 44 39 37 35 33 33 31 29
29 15 22 24 28 35 33 35 39 43 41 42 45 43 41 31 30 26 28 29 37 32 59 63 63 82 81 81 77 70 60 54 54 53 55 52 54 50 43 39 35 34 28 25
29 24 22 30 35 33 32 32 31 36 38 44 41 41 41 35 28 26 32 31 33 31 58 63 59 70 81 82 76 68 60 56 55 57 55 58 53 39 44 39 35 33 25 19
28 32 25 21 22 24 31 27 26 31 30 32 33 31 27 22 22 27 28 27 29 23 35 65 59 57 73 80 71 64 61 56 56 59 60 51 51 42 35 33 35 28 22 19
30 32 31 20 24 24 23 20 18 24 28 32 32 29 23 26 27 31 24 21 30 34 34 41 63 60 61 72 67 61 61 60 59 62 59 59 53 53 35 40 25 17 18 19
25 39 30 21 20 19 17 15 21 24 26 32 33 24 22 24 31 23 25 24 30 28 25 41 30 57 61 68 61 59 60 60 61 62 60 58 56 35 33 15 16 17 20 21
30 34 26 23 16 20 19 21 21 28 31 31 32 15 20 25 29 27 28 26 25 31 31 33 45 61 61 61 60 56 59 62 61 62 59 51 48 45 30 22 19 21 23 23
25 29 32 29 19 24 18 22 25 27 27 25 25 18 22 23 28 33 34 34 41 41 34 45 50 62 64 62 63 56 53 57 57 53 54 58 54 44 33 23 22 24 23 21
33 28 27 20 22 18 20 24 24 36 31 36 29 23 22 22 27 22 28 30 35 43 41 46 60 66 63 63 66 54 47 58 64 58 68 56 45 39 28 25 26 23 22 21
29 23 24 15 25 28 25 24 30 25 29 30 37 42 45 35 30 24 30 28 37 31 56 46 66 67 61 64 66 53 63 44 84 73 54 44 37 31 26 27 21 23 23 22
24 27 26 16 22 19 23 29 31 38 42 41 37 36 36 47 36 32 26 36 39 46 43 53 64 63 60 62 64 66 70 36 56 57 51 32 27 28 25 20 24 25 24 21
23 26 27 23 20 16 22 29 37 39 26 19 19 24 17 18 34 32 33 42 46 55 41 55 63 64 61 64 64 60 55 62 47 44 33 30 26 23 21 23 23 24 24 22
26 26 26 21 17 25 30 34 39 23 18 25 21 20 28 15 34 35 45 47 51 53 41 61 65 65 63 57 57 55 47 46 46 43 32 29 26 21 22 24 25 24 22 21
23 23 23 20 23 32 36 31 24 25 28 27 18 17 9 4 33 49 47 48 51 52 48 63 66 60 55 60 33 39 50 42 38 33 30 28 23 23 25 25 25 22 22 20
17 17 21 19 23 30 32 24 21 23 17 14 13 7 6 24 36 50 53 63 51 60 42 49 48 51 44 44 33 50 44 38 32 31 28 26 27 26 26 24 24 22 21 21
23 21 13 14 24 31 28 16 20 17 7 17 6 6 20 37 39 52 64 56 37 49 46 42 44 46 39 44 43 42 40 35 31 31 30 27 26 26 26 24 23 23 21 19
21 18 17 21 24 28 24 18 18 20 11 15 42 45 51 51 53 49 56 44 44 44 48 49 39 50 54 43 47 39 39 33 31 29 28 27 26 26 25 25 24 22 20 20
19 14 17 18 21 26 19 12 11 15 19 26 28 30 44 47 38 37 24 31 38 42 35 44 35 53 50 42 44 38 33 32 32 31 28 27 26 27 27 25 20 19 19 18
14 13 15 19 18 26 8 11 20 20 28 25 25 35 36 36 30 25 27 31 43 48 43 46 52 47 43 37 33 31 29 28 26 25 25 24 25 25 22 19 17 17 18 18
11 11 12 19 19 23 8 9 6 14 26 26 26 30 31 36 37 31 36 39 33 39 45 49 44 40 35 31 26 23 23 21 21 20 19 18 15 13 15 15 18 18 19 18